Location: Nitta Yuma
(33.0242°N, 90.8483°W)
Time: 09:13:29
(UTC+00:00)

Hubble Space Telescope - Visible Passes

Search period start: 23 April 2021 00:00
Search period end: 03 May 2021 00:00
Orbit: 535 x 539 km, 28.5° (Epoch: 22 April)

Date Brightness Start Highest point End Pass type
(mag) Time Alt. Az. Time Alt. Az. Time Alt. Az.
23 Apr 1.7 01:02:46 10° SW 01:06:29 32° SSE 01:10:11 10° ESE visible
23 Apr 2.2 02:43:25 10° WSW 02:45:48 29° SW 02:45:48 29° SW visible
24 Apr 1.6 02:32:29 10° WSW 02:35:36 38° SW 02:35:36 38° SW visible
25 Apr 1.3 02:21:34 10° WSW 02:25:21 41° S 02:25:21 41° S visible
26 Apr 1.4 02:10:40 10° WSW 02:14:31 39° S 02:15:04 37° SSE visible
27 Apr 1.6 01:59:46 10° WSW 02:03:34 35° S 02:04:45 29° SSE visible
28 Apr 1.8 01:48:54 10° WSW 01:52:36 32° SSW 01:54:25 22° SSE visible
29 Apr 2.1 01:38:04 10° WSW 01:41:38 28° SSW 01:44:05 16° SE visible
30 Apr 2.3 01:27:16 10° WSW 01:30:39 24° SSW 01:33:46 11° SE visible
01 May 2.6 01:16:33 10° WSW 01:19:39 21° SSW 01:22:46 10° SSE visible
